Powrót do katalogu

CZ-3A DEB

LostGTO
NORAD 35561·DEBRIS·🇨🇳 China

Wystrzelony Feb 2, 2007 z Xichang Satellite Launch Center

Loading…

TLE

NieaktualneSource: Space-Track

Epoka: Jan 24, 2012, 12:29 UTC

1 35561U 07003V   12024.52046477  .00000070  00000-0  00000-0 0  9991
2 35561  23.8903 131.8532 7162038 126.9068 321.7936  2.42200179 27118

Śledź CZ-3A DEB w czasie rzeczywistym z AllMySat

Download on the App Store